Cherokee, IA

11:00 AM CST on December 04, 2016 (GMT -0600)
Cherokee Municipal

Weather History for KCKP - February, 2014

Change the Weather History Date:

Tuesday, February 4, 2014

  Actual Average Record
Temperature  
Mean Temperature 8 °F -  
Max Temperature 16 °F 26 °F 52 °F (1963)
Min Temperature 0 °F 6 °F -20 °F (1989)
Degree Days  
Heating Degree Days 57    
Moisture  
Dew Point 2 °F    
Average Humidity 78    
Maximum Humidity 87    
Minimum Humidity 68    
Precipitation  
Precipitation 0.00 in - - ()
Sea Level Pressure  
Sea Level Pressure 30.35 in    
Wind  
Wind Speed 11 mph (NNE)    
Max Wind Speed 22 mph    
Max Gust Speed 31 mph    
Visibility 7 miles    
Events Snow    
Averages and records for this station are not official NWS values.
T = Trace of Precipitation, MM = Missing Value Source: NWS Daily Summary

Daily Weather History Graph

Daily Weather History Graph

Search for Another Location

Airport or City:

Trip Planner

Search our weather history database for the weather conditions in past years. The results will help you decide how hot, cold, wet, or windy it might be!

Date:

Astronomy

Feb. 04, 2014 Rise Set
Actual Time 7:33 AM CST 5:39 PM CST
Civil Twilight 7:03 AM CST 6:09 PM CST
Nautical Twilight 6:29 AM CST 6:42 PM CST
Astronomical Twilight 5:56 AM CST 7:16 PM CST
Moon 10:03 AM CST 11:44 PM CST
Length of Visible Light 11h 05m
Length of Day
10h 06m
Waxing Crescent, 29% of the Moon is Illuminated
Feb 4
Waxing Crescent
Feb 6
First Quarter
Feb 14
Full
Feb 22
Last Quarter
Mar 1
New

Hourly Weather History & Observations

Time (CST) Temp. Windchill Dew Point Humidity Pressure Visibility Wind Dir Wind Speed Gust Speed Precip Events Conditions
12:15 AM 16.2 °F 6.5 °F 12.0 °F 84% 30.29 in 3.0 mi ENE 6.9 mph - N/A Snow Light Snow
12:35 AM 15.8 °F 5.1 °F 11.7 °F 84% 30.30 in 3.0 mi NE 8.1 mph - N/A Snow Light Snow
12:55 AM 15.6 °F 4.0 °F 11.3 °F 83% 30.30 in 5.0 mi NE 9.2 mph - N/A Snow Light Snow
1:15 AM 15.3 °F 3.5 °F 11.3 °F 84% 30.30 in 4.0 mi NE 9.2 mph - N/A Snow Light Snow
1:35 AM 14.7 °F 4.8 °F 10.8 °F 84% 30.31 in 5.0 mi NNE 6.9 mph - N/A Snow Light Snow
1:55 AM 14.0 °F 2.0 °F 10.4 °F 86% 30.31 in 5.0 mi NE 9.2 mph - N/A Snow Light Snow
2:15 AM 13.5 °F 1.3 °F 9.5 °F 84% 30.31 in 7.0 mi NE 9.2 mph - N/A Snow Light Snow
2:35 AM 12.9 °F 2.6 °F 9.0 °F 84% 30.31 in 10.0 mi ENE 6.9 mph - N/A Snow Light Snow
2:50 AM 12.2 °F 0.7 °F 8.2 °F 84% 30.31 in 10.0 mi NE 8.1 mph - N/A Snow Light Snow
3:15 AM 11.3 °F -2.2 °F 7.3 °F 84% 30.31 in 10.0 mi NNE 10.4 mph - N/A   Scattered Clouds
3:30 AM 10.9 °F -1.8 °F 7.2 °F 85% 30.31 in 10.0 mi NNE 9.2 mph - N/A   Clear
3:55 AM 10.0 °F -1.9 °F 5.9 °F 83% 30.32 in 10.0 mi NE 8.1 mph - N/A   Scattered Clouds
4:15 AM 9.1 °F -3.0 °F 5.4 °F 85% 30.32 in 10.0 mi NE 8.1 mph - N/A   Clear
4:35 AM 8.6 °F -3.7 °F 5.0 °F 85% 30.32 in 10.0 mi NNE 8.1 mph - N/A   Clear
4:55 AM 8.2 °F -4.1 °F 4.8 °F 86% 30.32 in 10.0 mi NNE 8.1 mph - N/A   Scattered Clouds
5:15 AM 8.1 °F -2.0 °F 4.8 °F 87% 30.33 in 10.0 mi NE 5.8 mph - N/A   Mostly Cloudy
5:35 AM 8.2 °F -1.8 °F 5.0 °F 87% 30.34 in 10.0 mi NE 5.8 mph - N/A   Mostly Cloudy
5:55 AM 8.6 °F -2.6 °F 5.5 °F 87% 30.33 in 10.0 mi NE 6.9 mph - N/A   Mostly Cloudy
6:15 AM 8.6 °F -2.6 °F 5.5 °F 87% 30.33 in 10.0 mi NE 6.9 mph - N/A   Mostly Cloudy
6:35 AM 9.3 °F -1.7 °F 6.3 °F 87% 30.34 in 10.0 mi ENE 6.9 mph - N/A   Overcast
6:55 AM 10.2 °F -0.6 °F 7.0 °F 87% 30.35 in 10.0 mi NE 6.9 mph - N/A   Overcast
7:15 AM 10.9 °F -0.8 °F 7.7 °F 87% 30.35 in 10.0 mi NE 8.1 mph - N/A   Overcast
7:30 AM 11.1 °F -0.6 °F 7.7 °F 86% 30.36 in 10.0 mi NNE 8.1 mph - N/A   Overcast
7:55 AM 11.3 °F -2.9 °F 7.7 °F 85% 30.36 in 10.0 mi NE 11.5 mph - N/A   Overcast
8:15 AM 11.7 °F -3.2 °F 7.5 °F 83% 30.36 in 10.0 mi NNE 12.7 mph - N/A   Overcast
8:35 AM 11.3 °F -3.6 °F 6.8 °F 82% 30.36 in 10.0 mi NE 12.7 mph 19.6 mph N/A   Overcast
8:55 AM 11.1 °F -3.9 °F 5.9 °F 80% 30.36 in 10.0 mi NNE 12.7 mph 17.3 mph N/A   Overcast
9:15 AM 11.3 °F -4.3 °F 6.1 °F 80% 30.36 in 10.0 mi NE 13.8 mph 21.9 mph N/A   Overcast
9:35 AM 10.9 °F -4.7 °F 5.7 °F 79% 30.36 in 2.0 mi NNE 13.8 mph 19.6 mph N/A Snow Light Snow
9:55 AM 10.9 °F -2.6 °F 5.7 °F 79% 30.35 in 0.8 mi NNE 10.4 mph - N/A Snow Light Snow
10:15 AM 10.0 °F -4.5 °F 4.8 °F 79% 30.36 in 4.0 mi NNE 11.5 mph - N/A Snow Light Snow
10:35 AM 9.9 °F -4.7 °F 4.5 °F 79% 30.36 in 3.0 mi North 11.5 mph 16.1 mph N/A Snow Light Snow
10:55 AM 10.4 °F -3.3 °F 4.8 °F 78% 30.36 in 5.0 mi NNE 10.4 mph 19.6 mph N/A Snow Light Snow
11:15 AM 10.4 °F -1.5 °F 4.1 °F 76% 30.37 in 4.0 mi NNE 8.1 mph - N/A Snow Light Snow
11:35 AM 10.4 °F -4.8 °F 4.3 °F 76% 30.37 in 5.0 mi NNE 12.7 mph - N/A Snow Light Snow
11:55 AM 10.4 °F -6.0 °F 3.9 °F 75% 30.35 in 7.0 mi NNE 15.0 mph 18.4 mph N/A Snow Light Snow
12:15 PM 9.5 °F -6.6 °F 2.7 °F 74% 30.33 in 5.0 mi North 13.8 mph 21.9 mph N/A Snow Light Snow
12:35 PM 9.1 °F -7.0 °F 2.7 °F 75% 30.33 in 5.0 mi North 13.8 mph 18.4 mph N/A Snow Light Snow
12:55 PM 8.6 °F -7.0 °F 2.3 °F 76% 30.33 in 10.0 mi North 12.7 mph 19.6 mph N/A Snow Light Snow
1:15 PM 8.6 °F -7.7 °F 2.3 °F 76% 30.33 in 10.0 mi North 13.8 mph 20.7 mph N/A   Overcast
1:35 PM 8.2 °F -6.8 °F 1.6 °F 74% 30.34 in 10.0 mi NNE 11.5 mph 17.3 mph N/A   Overcast
1:55 PM 7.9 °F -6.4 °F 1.2 °F 74% 30.34 in 10.0 mi NNE 10.4 mph - N/A Snow Light Snow
2:15 PM 8.4 °F -7.3 °F 1.6 °F 74% 30.33 in 10.0 mi NNE 12.7 mph 19.6 mph N/A Snow Light Snow
2:35 PM 7.7 °F -8.2 °F 0.7 °F 73% 30.34 in 5.0 mi North 12.7 mph 21.9 mph N/A Snow Light Snow
2:55 PM 7.0 °F -11.6 °F 0.1 °F 74% 30.34 in 5.0 mi North 17.3 mph 21.9 mph N/A Snow Light Snow
3:15 PM 6.8 °F -9.3 °F 0.3 °F 75% 30.33 in 5.0 mi North 12.7 mph 18.4 mph N/A Snow Light Snow
3:35 PM 6.4 °F -10.5 °F -0.2 °F 74% 30.34 in 5.0 mi North 13.8 mph 20.7 mph N/A Snow Light Snow
3:55 PM 6.4 °F -10.5 °F -0.6 °F 73% 30.34 in 10.0 mi North 13.8 mph 17.3 mph N/A Snow Light Snow
4:15 PM 5.9 °F -12.4 °F -1.3 °F 72% 30.34 in 10.0 mi North 16.1 mph 21.9 mph N/A Snow Light Snow
4:35 PM 5.9 °F -10.5 °F -1.5 °F 72% 30.34 in 10.0 mi North 12.7 mph 21.9 mph N/A   Overcast
4:55 PM 5.9 °F -11.8 °F -1.8 °F 70% 30.36 in 10.0 mi NNE 15.0 mph 18.4 mph N/A   Overcast
5:15 PM 5.5 °F -13.5 °F -2.2 °F 70% 30.36 in 10.0 mi North 17.3 mph 27.6 mph N/A Snow Light Snow
5:35 PM 5.0 °F -12.3 °F -2.6 °F 71% 30.36 in 10.0 mi North 13.8 mph 20.7 mph N/A   Overcast
5:55 PM 4.8 °F -13.2 °F -3.3 °F 69% 30.37 in 10.0 mi NNE 15.0 mph 21.9 mph N/A   Overcast
6:15 PM 4.5 °F -15.4 °F -4.0 °F 68% 30.38 in 10.0 mi North 18.4 mph 26.5 mph N/A   Overcast
6:35 PM 4.1 °F -14.1 °F -3.6 °F 70% 30.38 in 10.0 mi North 15.0 mph 25.3 mph N/A   Overcast
6:55 PM 3.9 °F -16.6 °F -4.4 °F 69% 30.39 in 7.0 mi North 19.6 mph 26.5 mph N/A Snow Light Snow
7:15 PM 3.7 °F -16.9 °F -4.2 °F 70% 30.39 in 5.0 mi North 19.6 mph 25.3 mph N/A Snow Light Snow
7:35 PM 3.6 °F -17.1 °F -4.2 °F 70% 30.39 in 5.0 mi North 19.6 mph 25.3 mph N/A Snow Light Snow
7:55 PM 3.2 °F -15.9 °F -4.2 °F 71% 30.39 in 4.0 mi North 16.1 mph 26.5 mph N/A Snow Light Snow
8:15 PM 2.8 °F -17.5 °F -3.5 °F 75% 30.39 in 2.5 mi North 18.4 mph 31.1 mph N/A Snow Light Snow
8:35 PM 2.3 °F -17.1 °F -3.6 °F 76% 30.39 in 2.0 mi North 16.1 mph 26.5 mph N/A Snow Light Snow
8:55 PM 2.1 °F -16.6 °F -4.0 °F 76% 30.40 in 3.0 mi North 15.0 mph 25.3 mph N/A Snow Light Snow
9:15 PM 1.9 °F -20.2 °F -4.2 °F 76% 30.39 in 2.5 mi North 21.9 mph 29.9 mph N/A Snow Light Snow
9:35 PM 1.9 °F -18.1 °F -4.0 °F 76% 30.40 in 2.5 mi North 17.3 mph 26.5 mph N/A Snow Light Snow
9:55 PM 1.8 °F -17.8 °F -4.4 °F 76% 30.41 in 2.5 mi North 16.1 mph 25.3 mph N/A Snow Light Snow
10:15 PM 1.2 °F -18.4 °F -4.4 °F 77% 30.41 in 2.0 mi North 16.1 mph 26.5 mph N/A Snow Light Snow
10:35 PM 1.0 °F -19.3 °F -4.4 °F 78% 30.42 in 2.5 mi North 17.3 mph 24.2 mph N/A Snow Light Snow
10:55 PM 0.9 °F -21.2 °F -4.9 °F 77% 30.42 in 2.0 mi North 20.7 mph 27.6 mph N/A Snow Light Snow
11:15 PM 0.7 °F -20.9 °F -4.5 °F 79% 30.42 in 1.8 mi North 19.6 mph 25.3 mph N/A Snow Light Snow
11:35 PM 0.9 °F -20.1 °F -4.5 °F 78% 30.43 in 2.0 mi North 18.4 mph 26.5 mph N/A Snow Light Snow
11:55 PM 1.0 °F -19.3 °F -4.4 °F 78% 30.43 in 2.5 mi North 17.3 mph 23.0 mph N/A Snow Light Snow